[[{"header":{"parameterUnit":"m.s-1","parameterCategory":1,"la1":30.2991,"la2":30.254,"lo1":-89.0895,"lo2":-89.0444,"dy":0.0017,"dx":0.0017,"nx":28,"ny":28,"refTime":"2024-03-22T09:00:00:Z","depth":0,"parameterNumber":2,"parameterNumberName":"U-component_of_WINDS"},"data":[0,0,0,0,0,0,0,0,0,0,0,0,0,0,0,0,0,0,0,0,0,0,0,0,0,0,0,0,0,0,0,0,0,0,0,0,0,0,0,0,0,0,0,0,0,0,0,0,0,0,0,0,0,0,0,0,0,0,1.2662,1.2662,0,1.2698,1.2698,1.2699,1.2688,1.2688,1.2687,1.2686,1.2721,1.2723,1.2724,0,0,0,0,0,0,0,0,0,0,0,0,0,1.2583,1.2585,1.2662,1.2662,1.2663,1.2698,1.2698,1.2699,1.2688,1.2688,1.2687,1.2686,1.2721,1.2722,1.2724,0,0,0,0,0,0,0,0,0,0,0,0,0,1.2618,1.2585,1.2661,1.2662,1.2662,1.2698,1.2698,1.2699,1.2689,1.2688,1.2686,1.2685,1.272,1.2722,1.2725,1.2762,0,0,1.2732,1.2733,0,0,0,0,0,0,0,0,1.2616,1.2621,1.2661,1.2662,1.2662,1.2688,1.2683,1.272,1.2689,1.2678,1.2686,1.2685,1.2711,1.2714,1.2723,1.2763,1.2765,1.2732,1.2734,1.2735,1.2735,0,0,0,0,0,0,0,1.2614,1.2619,1.2676,1.2662,1.2662,1.266,1.2664,1.269,1.27,1.2679,1.2679,1.2683,1.2711,1.2721,1.2724,1.2765,1.2732,1.2734,1.2736,1.2737,1.284,1.2841,0,0,0,0,0,0,1.2611,1.2617,1.2675,1.2677,1.2636,1.2662,1.2666,1.268,1.27,1.2702,1.2684,1.2683,1.2717,1.2721,1.2725,1.277,1.2735,1.2737,1.2738,1.2839,1.284,1.2842,0,0,0,0,0,0,1.2609,1.2616,1.2673,1.2647,1.2654,1.2665,1.2681,1.2682,1.2692,1.2704,1.2705,1.2692,1.2716,1.2721,1.2753,1.2771,1.2738,1.274,1.2837,1.2839,1.2841,1.2861,0,0,0,0,0,0,1.2607,1.2616,1.263,1.2647,1.2656,1.2701,1.2682,1.2683,1.2696,1.2694,1.2712,1.2714,1.2716,1.275,1.2756,1.2774,1.2742,1.2835,1.2838,1.284,1.2859,1.2864,1.2868,0,0,0,0,0,1.2604,1.2633,1.263,1.2637,1.2673,1.2702,1.2707,1.2709,1.2698,1.2712,1.272,1.2713,1.2769,1.2753,1.276,1.2779,1.2834,1.2837,1.284,1.2857,1.2863,1.2868,0,0,0,0,0,0,1.2615,1.2635,1.2633,1.2668,1.2684,1.27,1.2718,1.2715,1.2733,1.2731,1.2733,1.2737,1.277,1.2778,1.276,1.2817,1.28,1.2804,1.281,1.2816,1.282,1.2817,1.2744,0,0,0,0,0,1.2622,1.2645,1.266,1.269,1.2698,1.2707,1.272,1.2721,1.2737,1.2743,1.2753,1.2769,1.279,1.2803,1.2823,1.2861,1.2865,1.2878,1.2882,1.2886,1.2889,1.2911,1.2917,1.2851,1.2851,1.2851,0,0,1.2636,1.265,1.2663,1.2693,1.2705,1.2728,1.2712,1.2737,1.2754,1.2746,1.2777,1.2786,1.2803,1.2838,1.2854,1.2846,1.2909,1.2889,1.2892,1.2893,1.2914,1.2921,1.2926,1.2853,1.2853,1.2852,0,0,1.2673,1.2685,1.2712,1.2725,1.2745,1.2751,1.2758,1.2776,1.2781,1.2813,1.2808,1.2829,1.2865,1.2878,1.2889,1.2935,1.2929,1.2941,1.2963,1.2985,1.299,1.2994,1.3011,1.3017,1.2945,1.2945,1.2945,0,1.2687,1.2721,1.2726,1.2751,1.2765,1.2761,1.2789,1.2801,1.2826,1.2835,1.2826,1.2873,1.2884,1.2923,1.2935,1.2944,1.2952,1.2938,1.2989,1.2994,1.2998,1.3014,1.302,1.2946,1.2946,1.2946,1.2946,0,1.2738,1.2763,1.2782,1.2808,1.2824,1.285,1.2859,1.2874,1.2875,1.2882,1.2915,1.293,1.2953,1.2963,1.2962,1.3002,1.2997,1.2988,1.2971,1.3005,1.3021,1.3027,1.2948,1.2948,1.2947,1.2947,0,0,1.278,1.2811,1.2818,1.283,1.2853,1.2872,1.2899,1.2923,1.2937,1.2955,1.2978,1.301,1.3003,1.3016,1.3018,1.3037,1.3073,1.3026,1.3027,1.3035,1.3119,1.3125,1.3132,1.307,1.3072,1.3073,1.3118,0,1.2819,1.2867,1.2873,1.2916,1.2939,1.2937,1.2961,1.2978,1.2986,1.3007,1.3016,1.3039,1.3028,1.3036,1.3055,1.3065,1.309,1.3062,1.3092,1.3093,1.3087,1.314,1.3145,1.3187,1.3124,1.3125,1.3125,0,1.287,1.2891,1.2937,1.2959,1.2969,1.299,1.3014,1.3034,1.3054,1.3058,1.3075,1.3075,1.3103,1.3086,1.3126,1.3106,1.3119,1.3127,1.3128,1.313,1.311,1.3143,1.32,1.3207,1.3134,1.3134,1.3133,0,1.2897,1.2937,1.297,1.298,1.3006,1.3022,1.3033,1.3052,1.3067,1.3088,1.3098,1.3122,1.3135,1.3154,1.3161,1.3147,1.32,1.3183,1.3205,1.3205,1.3215,1.3214,1.3275,1.3225,1.3224,1.3224,1.3224,0,1.2939,1.2966,1.2982,1.3002,1.3034,1.3041,1.3073,1.3083,1.3101,1.3123,1.3123,1.3144,1.3152,1.3175,1.3181,1.3213,1.3219,1.3224,1.3225,1.3224,1.3223,1.3231,1.3229,1.3226,1.3226,1.3225,1.3225,0,1.2973,1.2984,1.302,1.3043,1.305,1.3072,1.3092,1.3112,1.3121,1.315,1.3157,1.3171,1.3198,1.3208,1.3239,1.3244,1.3282,1.328,1.3275,1.3275,1.3297,1.3295,1.3365,1.3375,1.3318,1.3318,1.3319,0,1.2998,1.302,1.3047,1.3062,1.3075,1.31,1.3116,1.3125,1.3142,1.3168,1.3184,1.3212,1.3234,1.3277,1.329,1.3315,1.3314,1.3337,1.3318,1.3317,1.3315,1.3313,1.3316,1.334,1.3341,1.3342,1.3342,0,1.3043,1.3049,1.3072,1.3099,1.3119,1.314,1.316,1.3173,1.3185,1.3204,1.3232,1.325,1.3284,1.3311,1.3338,1.3349,1.3348,1.3348,1.3355,1.3353,1.335,1.3352,1.3285,1.3346,1.3346,1.3345,1.3345,1.3345,1.3074,1.3094,1.3116,1.3143,1.316,1.318,1.32,1.3214,1.3238,1.3267,1.3271,1.3302,1.3323,1.3358,1.3372,1.3396,1.339,1.3399,1.3401,1.3403,1.3405,1.3347,1.3401,1.3401,1.3401,1.3401,1.3401,0,1.3119,1.3134,1.3159,1.3188,1.321,1.3209,1.3232,1.325,1.3278,1.3298,1.3321,1.3354,1.3381,1.3398,1.3426,1.3442,1.3442,1.3449,1.3447,1.345,1.3409,1.3401,1.3448,1.3448,1.3448,1.3448,1.3448,1.3448,1.3144,1.3179,1.3187,1.3231,1.3246,1.3277,1.329,1.3309,1.3325,1.3363,1.3386,1.3398,1.3417,1.3447,1.3472,1.3476,1.3486,1.3493,1.3497,1.3458,1.3453,1.3448,1.344,1.3496,1.3496,1.3536,1.3537,1.3537]},{"header":{"parameterUnit":"m.s-1","parameterCategory":1,"la1":30.2991,"la2":30.254,"lo1":-89.0895,"lo2":-89.0444,"dy":0.0017,"dx":0.0017,"nx":28,"ny":28,"refTime":"2024-03-22T09:00:00:Z","depth":0,"parameterNumber":3,"parameterNumberName":"V-component_of_WINDS"},"data":[0,0,0,0,0,0,0,0,0,0,0,0,0,0,0,0,0,0,0,0,0,0,0,0,0,0,0,0,0,0,0,0,0,0,0,0,0,0,0,0,0,0,0,0,0,0,0,0,0,0,0,0,0,0,0,0,0,0,-6.5603,-6.5604,0,-6.5737,-6.5738,-6.574,-6.5669,-6.5666,-6.5662,-6.5659,-6.5794,-6.58,-6.5807,0,0,0,0,0,0,0,0,0,0,0,0,0,-6.5284,-6.529,-6.5602,-6.5604,-6.5606,-6.5737,-6.5738,-6.574,-6.567,-6.5665,-6.5661,-6.5657,-6.5791,-6.58,-6.5808,0,0,0,0,0,0,0,0,0,0,0,0,0,-6.542,-6.5292,-6.5602,-6.5587,-6.5586,-6.5736,-6.5738,-6.5741,-6.5671,-6.5665,-6.566,-6.5655,-6.5789,-6.5799,-6.5809,-6.5981,0,0,-6.5841,-6.5845,0,0,0,0,0,0,0,0,-6.5413,-6.5432,-6.5587,-6.5588,-6.5588,-6.5681,-6.5675,-6.5821,-6.5672,-6.5639,-6.5658,-6.5652,-6.576,-6.5773,-6.581,-6.5987,-6.5993,-6.5842,-6.5848,-6.5853,-6.5856,0,0,0,0,0,0,0,-6.5403,-6.5426,-6.5655,-6.559,-6.559,-6.5572,-6.5586,-6.5703,-6.5728,-6.5641,-6.5636,-6.5653,-6.5759,-6.58,-6.5812,-6.5995,-6.5841,-6.5851,-6.5857,-6.5861,-6.6322,-6.6328,0,0,0,0,0,0,-6.5395,-6.5418,-6.5651,-6.5659,-6.5485,-6.5582,-6.5597,-6.5656,-6.5727,-6.5732,-6.5658,-6.565,-6.5785,-6.58,-6.5817,-6.6024,-6.5852,-6.5862,-6.5868,-6.6316,-6.6323,-6.633,0,0,0,0,0,0,-6.5388,-6.5416,-6.5646,-6.5538,-6.5566,-6.5594,-6.566,-6.5662,-6.5702,-6.5739,-6.5743,-6.5695,-6.5781,-6.5802,-6.5941,-6.6028,-6.5867,-6.5876,-6.6309,-6.6318,-6.6326,-6.644,0,0,0,0,0,0,-6.5379,-6.5414,-6.5481,-6.554,-6.5572,-6.5769,-6.5666,-6.5668,-6.5721,-6.5711,-6.5775,-6.578,-6.5778,-6.5926,-6.5952,-6.6039,-6.5885,-6.6301,-6.6313,-6.6324,-6.6428,-6.6451,-6.6471,0,0,0,0,0,-6.5368,-6.5506,-6.5484,-6.5513,-6.5655,-6.5774,-6.5792,-6.5789,-6.5728,-6.5794,-6.5818,-6.5778,-6.6014,-6.5941,-6.5969,-6.6061,-6.6296,-6.631,-6.6323,-6.6419,-6.6447,-6.6471,0,0,0,0,0,0,-6.5455,-6.5514,-6.549,-6.5651,-6.5709,-6.5762,-6.5846,-6.5818,-6.5893,-6.5881,-6.5872,-6.5887,-6.6032,-6.606,-6.5978,-6.6232,-6.6145,-6.6165,-6.6209,-6.6236,-6.6257,-6.6248,-6.5893,0,0,0,0,0,-6.5494,-6.5586,-6.5631,-6.5769,-6.5799,-6.5818,-6.587,-6.5862,-6.592,-6.5944,-6.5978,-6.6036,-6.6123,-6.618,-6.6262,-6.6431,-6.6445,-6.6508,-6.653,-6.6547,-6.6565,-6.6658,-6.6687,-6.6374,-6.6374,-6.6374,0,0,-6.5573,-6.5616,-6.5675,-6.5788,-6.5832,-6.5928,-6.5839,-6.5944,-6.6015,-6.5959,-6.6094,-6.6121,-6.6184,-6.634,-6.641,-6.6367,-6.6654,-6.6564,-6.6578,-6.6586,-6.6675,-6.6704,-6.6731,-6.6383,-6.6381,-6.638,0,0,-6.5767,-6.5809,-6.5929,-6.5975,-6.6042,-6.6054,-6.6082,-6.6141,-6.6157,-6.6292,-6.6253,-6.6336,-6.6486,-6.6534,-6.6578,-6.6791,-6.6757,-6.6817,-6.693,-6.702,-6.7045,-6.7067,-6.7144,-6.7172,-6.6834,-6.6835,-6.6835,0,-6.5858,-6.6001,-6.5994,-6.6103,-6.6154,-6.611,-6.6231,-6.6275,-6.6366,-6.6402,-6.6353,-6.6542,-6.6581,-6.6748,-6.68,-6.6836,-6.6869,-6.6811,-6.7042,-6.7064,-6.7084,-6.7158,-6.7187,-6.6842,-6.6841,-6.684,-6.6839,0,-6.611,-6.621,-6.6299,-6.6389,-6.645,-6.6564,-6.6575,-6.6637,-6.6624,-6.664,-6.6778,-6.6824,-6.6915,-6.6954,-6.6941,-6.7119,-6.7091,-6.7043,-6.6956,-6.7121,-6.7191,-6.7219,-6.6852,-6.6849,-6.6847,-6.6845,0,0,-6.6364,-6.6449,-6.6482,-6.6523,-6.6594,-6.6671,-6.6783,-6.6873,-6.6928,-6.6991,-6.7086,-6.7214,-6.717,-6.722,-6.7212,-6.7291,-6.7459,-6.7233,-6.7234,-6.7275,-6.7659,-6.7697,-6.773,-6.7436,-6.7441,-6.7446,-6.7655,0,-6.6564,-6.6763,-6.676,-6.6943,-6.7036,-6.6995,-6.7093,-6.7147,-6.7166,-6.7247,-6.7266,-6.7358,-6.7292,-6.7322,-6.7398,-6.7422,-6.7536,-6.7407,-6.7525,-6.7529,-6.7512,-6.7766,-6.7806,-6.8001,-6.7681,-6.7686,-6.7689,0,-6.6825,-6.6899,-6.7093,-6.7151,-6.719,-6.7278,-6.7361,-6.7439,-6.7499,-6.7507,-6.7563,-6.7543,-6.7657,-6.7566,-6.7724,-6.7636,-6.7683,-6.7702,-6.771,-6.7722,-6.7621,-6.7787,-6.8063,-6.8093,-6.7732,-6.7728,-6.7725,0,-6.6993,-6.7141,-6.7276,-6.7312,-6.7383,-6.7446,-6.7479,-6.7533,-6.7588,-6.766,-6.7696,-6.778,-6.7826,-6.7892,-6.7895,-6.7828,-6.8054,-6.7963,-6.8065,-6.8065,-6.8116,-6.8113,-6.8405,-6.8143,-6.8143,-6.8142,-6.8142,0,-6.7219,-6.7339,-6.7353,-6.7436,-6.757,-6.7565,-6.7697,-6.7723,-6.7773,-6.786,-6.7828,-6.7911,-6.7909,-6.7993,-6.7996,-6.8127,-6.8148,-6.8157,-6.8157,-6.8162,-6.8161,-6.8194,-6.8181,-6.815,-6.8148,-6.8147,-6.8145,0,-6.743,-6.7444,-6.7589,-6.7645,-6.7661,-6.7758,-6.7805,-6.7884,-6.7899,-6.8011,-6.8037,-6.8061,-6.8158,-6.8167,-6.8279,-6.8281,-6.844,-6.8424,-6.8421,-6.8419,-6.8521,-6.8512,-6.8847,-6.8891,-6.8598,-6.8601,-6.8603,0,-6.7574,-6.7666,-6.7732,-6.7789,-6.7826,-6.7917,-6.7974,-6.7972,-6.8032,-6.8108,-6.8178,-6.8272,-6.8348,-6.8505,-6.8533,-6.8619,-6.8606,-6.8717,-6.8618,-6.8621,-6.861,-6.8605,-6.8615,-6.8737,-6.874,-6.8742,-6.8745,0,-6.7829,-6.7832,-6.7914,-6.8001,-6.8069,-6.8136,-6.8199,-6.8247,-6.8253,-6.8321,-6.8421,-6.848,-6.8596,-6.869,-6.8775,-6.8807,-6.8778,-6.8775,-6.8804,-6.881,-6.8806,-6.8812,-6.8475,-6.8768,-6.8766,-6.8764,-6.8763,-6.8762,-6.8013,-6.8093,-6.8153,-6.8246,-6.8294,-6.8353,-6.8431,-6.8457,-6.854,-6.8635,-6.8628,-6.8739,-6.8797,-6.8908,-6.8947,-6.9033,-6.8996,-6.9036,-6.9047,-6.9058,-6.9069,-6.879,-6.9048,-6.9047,-6.9047,-6.9046,-6.9046,0,-6.8268,-6.8304,-6.839,-6.848,-6.8554,-6.852,-6.8587,-6.8651,-6.875,-6.8807,-6.8882,-6.8997,-6.9089,-6.9123,-6.9213,-6.9275,-6.9264,-6.9299,-6.9295,-6.9304,-6.9097,-6.9064,-6.9307,-6.9307,-6.9307,-6.9307,-6.9306,-6.9306,-6.8409,-6.8544,-6.8554,-6.8712,-6.8747,-6.8856,-6.8898,-6.8953,-6.8999,-6.913,-6.9206,-6.9228,-6.9276,-6.9369,-6.9451,-6.9459,-6.9494,-6.9536,-6.9538,-6.9344,-6.9318,-6.9293,-6.9262,-6.9543,-6.9543,-6.9738,-6.974,-6.9741]}]]